Wind_Speed
16 16 16 16 15 14 13 12 11 10 9 8 7 7 6 6 5 4 5 5 4 4 5 5 6 8 12 18 19 24 23 31 27 27 18 9 5 8 6 5 3 2 2 1 1 3 8
17 18 17 17 17 16 14 14 13 11 11 10 9 9 8 7 6 5 5 6 6 5 5 5 6 8 13 19 18 23 25 32 30 27 17 10 7 8 6 4 2 2 3 2 6 9 10
19 19 19 19 18 17 16 15 15 14 12 12 11 11 10 10 8 7 6 6 6 6 5 5 6 8 13 21 20 26 26 32 31 27 17 11 11 10 8 4 2 1 2 4 6 4 4
21 21 21 21 20 19 18 16 15 15 15 13 13 12 12 11 10 8 7 7 7 6 6 6 7 9 16 21 21 25 26 31 31 26 16 12 12 11 10 5 1 1 2 3 5 7 7
22 22 22 21 21 20 19 18 17 16 16 15 14 13 12 12 11 10 8 7 8 7 7 6 8 11 19 19 20 24 25 32 33 26 17 14 15 11 11 7 3 2 5 6 4 8 6
21 21 22 22 22 21 20 19 17 16 15 15 15 14 12 12 11 10 8 8 9 8 8 8 9 10 14 22 20 19 23 33 32 26 18 15 16 12 10 5 3 4 7 6 9 8 8
21 22 22 23 22 22 21 19 18 16 15 15 15 14 13 11 11 10 9 9 9 9 9 9 9 13 15 21 20 17 21 33 31 28 21 20 19 12 10 6 6 7 9 10 6 4 4
23 24 25 24 24 23 22 21 20 18 17 15 15 14 13 11 10 10 10 10 10 7 8 10 9 12 16 23 23 20 21 29 32 29 24 18 22 19 14 13 10 8 11 5 3 8 3
24 26 27 27 25 23 22 21 20 18 17 15 14 13 13 11 11 11 12 11 9 8 6 8 14 14 16 24 26 23 24 26 31 31 26 22 8 19 19 12 10 11 12 7 4 6 3
26 27 28 26 25 22 21 19 18 15 12 13 12 12 12 11 12 14 11 10 8 6 5 6 14 17 15 22 24 23 23 24 25 28 28 27 22 15 9 11 9 9 4 3 5 3 3
27 29 29 27 24 22 21 18 16 13 9 10 10 11 10 11 13 13 11 10 8 6 3 6 15 20 18 17 14 27 24 22 25 27 25 19 11 12 14 10 5 3 3 4 4 6 4
29 31 31 26 24 22 19 16 14 12 9 8 8 10 10 12 14 13 13 13 9 3 3 7 14 22 19 18 12 25 27 23 19 22 24 24 12 14 15 10 5 4 2 3 2 6 5
30 31 31 27 24 21 18 14 14 12 9 8 8 9 10 13 14 15 16 14 6 4 7 9 16 20 18 19 12 14 32 30 20 18 17 17 22 19 14 11 7 5 6 2 3 4 1
31 30 31 27 24 22 17 14 14 13 10 8 7 8 11 13 14 15 18 16 5 5 7 9 10 16 20 19 12 14 22 27 28 18 16 16 14 20 14 11 7 6 9 4 3 2 1
30 29 31 27 25 23 18 14 14 13 8 5 4 6 10 13 15 16 19 16 3 7 6 6 12 18 20 20 13 17 21 24 29 23 9 15 12 12 13 9 8 9 9 10 4 0 3
31 29 30 26 25 23 18 13 13 10 5 3 2 6 10 13 17 18 21 13 7 7 7 10 8 13 18 24 16 15 20 20 29 28 18 5 8 11 9 12 13 10 8 6 7 3 3
33 30 30 27 25 23 19 12 11 7 4 0 4 8 12 16 18 18 22 16 11 7 8 9 6 9 13 25 17 16 11 7 23 29 24 18 8 8 12 6 11 18 14 6 8 3 3
31 30 30 27 24 22 19 12 7 4 2 3 4 7 15 18 20 19 20 19 13 9 6 4 7 10 17 11 16 16 17 9 12 25 29 22 9 10 13 11 11 18 18 18 11 6 7
33 30 29 27 24 21 19 11 5 2 4 3 4 9 14 17 17 14 14 13 15 14 8 8 6 10 9 3 11 18 16 16 16 15 27 29 14 7 3 8 7 20 23 21 17 14 13
34 31 29 27 24 20 18 12 4 3 6 6 10 8 14 16 11 12 10 10 9 10 10 10 7 8 6 4 9 8 11 18 20 19 19 21 21 16 11 2 6 18 21 18 14 11 11
33 32 28 27 23 20 18 13 4 3 8 8 7 3 10 14 11 9 8 8 11 9 11 7 10 11 6 4 8 7 8 13 20 22 24 21 20 23 21 13 13 13 20 20 20 16 13
33 31 27 26 23 20 18 13 6 2 9 9 8 6 9 10 8 6 6 7 13 14 10 8 9 13 7 8 3 8 11 9 12 21 24 25 13 18 18 16 14 13 14 15 16 19 20
31 28 25 24 23 20 17 14 8 0 5 12 11 7 9 12 8 5 3 7 12 14 11 9 7 16 10 8 3 4 11 5 6 15 22 26 16 15 11 15 14 11 15 14 15 17 17
28 27 24 22 22 19 17 14 11 4 4 7 11 10 12 11 9 5 4 6 12 13 11 10 10 12 14 13 6 8 6 4 6 6 13 12 9 9 7 9 6 10 13 13 17 18 19
25 25 23 20 20 18 16 13 11 8 2 6 9 12 13 11 10 8 5 7 12 13 12 11 11 11 18 17 13 8 13 14 17 13 15 7 5 3 3 8 11 14 12 13 13 17 19
24 24 22 17 19 19 15 13 10 9 5 3 8 11 13 14 14 11 10 7 10 15 14 11 11 11 9 10 8 7 7 14 9 15 28 29 25 20 16 5 5 11 14 14 11 21 20
23 22 20 18 18 18 15 13 10 8 7 4 3 8 11 13 13 13 13 12 10 13 13 13 11 10 9 10 6 5 4 6 5 6 11 19 22 26 21 16 20 18 14 12 8 14 10
22 20 20 18 18 18 15 12 11 7 6 5 2 4 9 13 11 14 14 13 14 13 13 13 12 13 11 11 9 8 5 5 6 9 8 7 12 19 20 13 13 20 19 17 14 13 12
21 19 19 19 18 18 16 11 10 8 5 4 3 2 4 9 11 14 16 14 14 14 13 13 14 10 10 9 10 10 10 13 12 11 14 12 14 12 13 14 13 16 14 15 13 15 12
Wind_Direction
352 352 350 346 345 342 338 333 327 322 319 318 316 312 313 309 299 290 271 260 258 257 253 235 222 211 194 181 182 190 180 178 175 179 180 172 175 171 138 140 109 88 128 313 352 297 319
345 343 341 337 334 332 329 326 320 314 307 302 299 298 297 298 295 282 271 257 248 244 246 235 218 204 191 182 184 179 181 182 175 181 172 182 178 174 148 140 123 156 179 225 282 300 303
341 339 336 333 330 326 321 316 313 309 301 296 290 286 286 287 287 276 265 253 242 239 235 232 211 199 187 180 180 179 181 182 180 183 175 188 190 182 165 173 171 265 301 279 312 355 311
338 335 333 332 329 324 319 313 306 301 299 293 288 282 275 275 277 275 259 251 236 230 228 222 204 195 176 187 179 184 186 185 186 186 178 188 192 185 185 202 218 355 13 120 338 337 301
337 335 333 330 327 325 320 314 307 299 292 289 284 280 276 267 266 264 253 244 231 224 219 216 200 194 186 187 183 189 189 190 193 186 186 193 196 194 199 227 230 346 346 18 11 353 339
339 337 335 332 329 326 322 316 309 301 293 283 277 274 271 266 259 253 246 235 227 221 214 206 200 183 193 191 183 184 190 193 197 189 193 199 204 209 210 232 227 328 357 11 353 356 20
350 347 343 337 333 328 323 318 310 301 293 286 273 266 263 260 250 244 235 227 221 222 211 201 193 197 189 187 184 185 188 196 200 195 199 204 215 218 219 260 254 307 328 333 355 353 356
352 349 345 340 335 331 326 320 312 298 286 284 274 259 255 251 241 234 229 222 219 213 202 207 197 190 183 183 186 190 190 196 202 200 204 212 222 224 232 269 273 290 302 330 11 347 309
346 345 343 341 336 333 329 325 319 306 281 272 269 256 250 241 230 224 222 217 212 209 199 203 199 191 182 184 192 191 192 192 204 203 209 216 221 230 246 251 259 268 284 294 298 322 234
348 344 342 340 338 335 332 328 327 318 288 261 256 249 247 233 222 217 217 211 201 198 215 216 198 192 191 190 193 191 194 196 199 205 211 223 232 243 232 232 254 291 312 268 281 264 203
352 349 347 344 341 339 334 329 330 325 300 267 252 246 239 224 216 213 209 194 188 167 179 185 177 182 182 180 202 196 196 199 205 207 210 217 239 236 230 218 253 311 351 339 313 220 185
353 353 351 348 344 341 336 328 327 325 307 276 252 245 232 216 213 203 190 184 177 179 179 165 174 179 174 177 191 199 197 202 205 212 220 224 212 210 219 219 264 301 297 75 132 175 217
355 355 353 350 346 343 338 325 323 324 311 286 262 240 219 211 205 193 183 175 179 203 163 169 178 180 182 173 174 192 197 200 199 199 213 221 221 212 218 236 242 240 168 183 196 215 278
355 354 354 352 350 348 341 328 322 327 312 289 260 229 210 207 199 189 179 176 192 137 146 161 182 185 188 186 196 195 198 196 202 201 207 206 219 213 219 229 217 220 196 199 240 245 24
354 355 355 353 352 352 347 333 326 332 316 295 252 215 201 194 191 180 177 184 155 143 138 170 167 183 194 194 190 197 208 203 201 187 176 190 222 209 213 214 211 226 203 221 229 226 263
358 356 356 354 352 352 351 343 337 337 330 314 225 191 190 187 183 177 182 182 139 125 133 152 168 189 193 186 190 194 198 217 208 199 194 199 214 209 205 228 224 225 221 183 214 220 257
356 357 357 355 352 352 355 351 346 352 347 345 176 178 176 180 179 180 193 188 171 138 130 135 145 182 183 183 193 195 200 199 205 202 201 217 220 207 195 206 227 219 208 199 186 187 268
353 356 358 357 354 353 358 358 359 9 88 133 157 179 174 175 178 194 204 206 207 203 165 165 137 139 163 171 210 216 218 193 202 203 199 209 230 251 250 273 266 216 211 215 219 228 220
357 355 358 359 358 357 360 5 12 72 129 133 192 182 169 176 189 205 219 227 229 209 197 190 159 167 177 250 209 211 225 222 221 204 212 211 221 239 248 260 231 200 207 214 219 238 224
356 356 357 360 1 2 1 7 18 136 156 146 132 153 168 172 194 207 218 230 211 200 210 205 209 204 230 249 194 195 229 222 217 217 204 207 214 205 212 172 181 193 195 200 209 209 214
354 355 355 359 1 4 6 7 19 159 180 177 184 179 181 187 179 194 202 199 187 180 186 204 225 210 222 244 193 208 221 200 194 204 207 208 214 229 233 263 274 212 201 200 212 217 220
349 351 352 357 359 2 7 10 13 173 192 194 198 204 192 184 190 195 197 191 188 182 192 213 220 203 223 230 191 198 196 191 191 200 208 203 211 218 235 251 213 196 206 212 223 229 234
344 349 350 353 359 0 6 13 10 74 194 206 212 209 191 179 170 186 214 197 190 189 195 215 209 200 218 192 150 188 181 197 183 190 188 201 212 207 197 191 197 206 209 226 237 236 239
342 345 347 350 356 358 3 9 15 7 202 198 206 207 196 195 201 205 245 210 189 172 173 187 170 170 185 197 168 155 161 227 95 116 164 155 150 186 174 172 210 222 228 248 254 254 251
342 344 346 347 352 356 357 3 10 12 324 210 206 207 209 207 208 207 217 192 173 175 168 170 172 174 166 160 199 164 225 221 215 239 221 244 294 330 228 249 268 269 269 270 289 286 275
342 344 346 347 350 353 354 355 1 7 359 258 221 214 211 215 217 212 213 223 215 192 188 182 172 180 175 176 166 186 183 209 202 222 226 235 240 248 244 221 258 271 273 262 249 262 278
344 347 349 348 349 351 349 352 352 358 1 342 244 224 212 211 211 208 213 216 214 208 209 207 210 199 212 225 223 212 198 187 194 196 220 225 231 223 244 253 253 265 267 265 227 270 287
344 345 347 347 348 348 347 345 348 348 355 356 326 236 215 209 211 205 206 208 207 211 211 217 218 226 228 231 232 225 227 237 267 273 268 257 237 229 240 237 255 258 252 227 268 270 269
341 342 342 344 345 344 343 340 342 343 339 350 347 297 221 206 211 209 210 212 211 213 213 215 217 218 216 212 230 243 247 261 265 269 269 249 235 231 225 236 249 248 255 263 252 247 254
Height
3172 3169 3166 3164 3162 3160 3158 3156 3154 3153 3152 3151 3151 3150 3149 3149 3149 3149 3149 3150 3150 3150 3151 3151 3152 3153 3155 3159 3161 3163 3168 3173 3177 3180 3183 3185 3185 3186 3187 3188 3188 3189 3189 3189 3189 3188 3188
3171 3168 3165 3162 3160 3157 3156 3153 3152 3150 3149 3148 3148 3147 3147 3147 3147 3147 3147 3148 3148 3149 3149 3150 3151 3152 3154 3158 3160 3163 3167 3172 3176 3180 3183 3184 3184 3185 3187 3188 3189 3189 3189 3189 3188 3187 3187
3169 3166 3163 3161 3158 3155 3153 3151 3149 3147 3146 3145 3145 3145 3144 3145 3145 3145 3145 3146 3146 3147 3148 3148 3150 3151 3153 3157 3159 3162 3166 3171 3175 3179 3182 3183 3185 3186 3186 3188 3189 3189 3189 3187 3186 3186 3185
3166 3163 3160 3157 3154 3152 3150 3147 3146 3144 3143 3142 3141 3141 3141 3141 3142 3142 3143 3143 3144 3145 3146 3147 3148 3150 3152 3154 3158 3162 3166 3170 3174 3179 3181 3182 3184 3186 3187 3188 3189 3188 3188 3187 3187 3186 3185
3163 3160 3156 3153 3151 3148 3146 3143 3141 3140 3139 3138 3138 3137 3138 3138 3138 3139 3140 3141 3142 3143 3144 3146 3148 3149 3151 3155 3158 3161 3165 3169 3174 3178 3180 3182 3184 3186 3187 3188 3189 3189 3188 3186 3186 3185 3183
3160 3157 3154 3150 3147 3144 3141 3139 3137 3135 3134 3133 3133 3133 3134 3134 3135 3136 3137 3138 3140 3141 3143 3144 3146 3150 3151 3153 3156 3160 3163 3168 3172 3176 3179 3181 3183 3185 3187 3188 3189 3189 3187 3186 3185 3185 3183
3158 3154 3150 3147 3143 3140 3137 3134 3132 3130 3129 3129 3129 3129 3130 3130 3132 3133 3134 3136 3140 3141 3141 3143 3144 3145 3147 3152 3156 3159 3162 3166 3170 3175 3177 3180 3183 3185 3186 3187 3188 3188 3187 3186 3185 3184 3184
3156 3152 3148 3143 3139 3135 3132 3129 3127 3125 3124 3124 3124 3124 3125 3127 3128 3130 3131 3133 3135 3139 3139 3140 3142 3144 3146 3150 3154 3157 3161 3165 3168 3172 3175 3181 3181 3184 3185 3187 3187 3187 3187 3186 3185 3184 3185
3154 3149 3145 3140 3135 3132 3128 3124 3121 3119 3118 3119 3119 3120 3121 3123 3125 3127 3128 3131 3133 3135 3137 3139 3140 3143 3146 3149 3152 3155 3159 3162 3166 3170 3173 3177 3181 3182 3184 3185 3186 3186 3185 3185 3185 3184 3184
3151 3146 3141 3136 3131 3128 3124 3120 3117 3115 3113 3113 3115 3116 3118 3120 3124 3123 3126 3129 3131 3133 3135 3137 3138 3141 3145 3148 3152 3154 3157 3162 3164 3169 3172 3177 3179 3181 3183 3184 3186 3184 3183 3183 3183 3183 3183
3149 3144 3138 3132 3128 3124 3120 3117 3114 3112 3110 3110 3111 3112 3114 3117 3119 3121 3126 3127 3129 3132 3133 3135 3135 3137 3141 3147 3149 3152 3156 3160 3163 3167 3172 3177 3177 3179 3181 3183 3184 3183 3182 3182 3181 3181 3182
3146 3141 3135 3129 3125 3121 3117 3114 3112 3109 3108 3107 3108 3109 3111 3113 3116 3120 3123 3126 3130 3133 3130 3132 3133 3136 3140 3144 3146 3149 3154 3159 3162 3165 3168 3172 3175 3176 3178 3181 3181 3181 3181 3181 3182 3182 3183
3144 3139 3133 3128 3123 3119 3115 3112 3109 3107 3106 3105 3105 3106 3108 3110 3114 3117 3121 3125 3130 3128 3130 3131 3131 3134 3139 3142 3144 3146 3150 3154 3158 3163 3165 3169 3172 3173 3175 3178 3179 3179 3180 3181 3181 3181 3179
3144 3138 3132 3126 3121 3116 3112 3109 3107 3105 3103 3102 3102 3103 3105 3108 3111 3115 3120 3125 3126 3125 3126 3128 3130 3134 3137 3141 3143 3145 3148 3151 3156 3160 3163 3167 3171 3170 3172 3175 3176 3176 3178 3178 3179 3178 3179
3142 3136 3130 3125 3119 3114 3110 3107 3104 3103 3101 3100 3100 3101 3103 3106 3109 3114 3119 3122 3122 3124 3125 3126 3129 3132 3134 3138 3142 3144 3146 3149 3153 3157 3161 3164 3167 3168 3170 3171 3174 3174 3176 3177 3178 3179 3179
3141 3135 3129 3123 3118 3113 3109 3105 3103 3101 3099 3099 3099 3100 3102 3105 3108 3113 3118 3119 3121 3123 3124 3125 3127 3130 3131 3135 3139 3141 3144 3145 3149 3154 3158 3162 3165 3165 3167 3168 3170 3172 3174 3176 3176 3177 3175
3140 3134 3128 3122 3117 3112 3107 3104 3101 3100 3099 3098 3099 3100 3102 3104 3109 3112 3114 3118 3120 3121 3123 3125 3126 3127 3129 3132 3137 3139 3141 3143 3145 3150 3156 3159 3162 3164 3165 3165 3166 3168 3170 3172 3173 3174 3172
3139 3133 3127 3121 3116 3111 3107 3103 3101 3100 3099 3099 3100 3101 3101 3105 3110 3111 3113 3116 3118 3120 3122 3123 3125 3127 3130 3133 3135 3137 3138 3140 3142 3147 3150 3156 3159 3161 3162 3161 3162 3163 3166 3168 3170 3172 3171
3138 3132 3126 3120 3115 3110 3106 3103 3101 3100 3100 3100 3100 3101 3103 3106 3109 3111 3113 3115 3116 3119 3121 3123 3125 3127 3129 3130 3132 3132 3135 3138 3142 3144 3146 3151 3155 3159 3159 3160 3157 3158 3161 3164 3167 3167 3168
3138 3131 3126 3120 3115 3110 3106 3102 3101 3100 3101 3102 3102 3103 3105 3106 3109 3111 3112 3114 3115 3117 3120 3121 3123 3125 3126 3127 3128 3129 3130 3132 3137 3141 3145 3149 3150 3153 3154 3154 3155 3155 3158 3161 3163 3165 3165
3137 3130 3125 3120 3115 3110 3106 3102 3100 3100 3101 3103 3103 3104 3105 3108 3109 3110 3112 3113 3114 3116 3118 3120 3121 3123 3124 3125 3126 3126 3127 3128 3132 3137 3141 3145 3147 3149 3151 3152 3152 3154 3155 3157 3159 3161 3162
3135 3130 3124 3119 3114 3110 3106 3103 3100 3100 3100 3102 3103 3104 3105 3107 3108 3109 3110 3111 3112 3114 3116 3118 3119 3120 3122 3124 3125 3125 3127 3129 3130 3134 3137 3140 3143 3146 3147 3149 3150 3151 3153 3154 3156 3157 3158
3133 3128 3123 3118 3114 3110 3106 3103 3100 3099 3100 3100 3102 3103 3105 3107 3107 3109 3109 3109 3111 3113 3115 3115 3116 3118 3120 3122 3124 3125 3128 3130 3130 3131 3132 3138 3141 3142 3145 3146 3149 3151 3150 3152 3153 3154 3155
3131 3126 3122 3117 3113 3109 3106 3103 3100 3099 3099 3099 3100 3102 3104 3106 3107 3107 3108 3108 3109 3111 3113 3113 3115 3117 3119 3121 3124 3127 3131 3132 3134 3136 3137 3137 3138 3141 3143 3145 3146 3145 3147 3148 3149 3149 3149
3128 3124 3120 3116 3112 3109 3106 3103 3101 3099 3098 3098 3098 3100 3102 3104 3105 3107 3108 3107 3108 3110 3111 3112 3114 3116 3118 3120 3125 3125 3133 3131 3131 3135 3136 3136 3137 3140 3141 3142 3142 3142 3143 3146 3145 3145 3144
3126 3122 3118 3114 3111 3108 3105 3103 3101 3099 3097 3097 3096 3097 3099 3102 3104 3106 3107 3107 3108 3109 3111 3112 3115 3116 3118 3121 3122 3123 3124 3127 3129 3131 3131 3132 3134 3137 3140 3141 3141 3140 3141 3142 3141 3139 3140
3124 3120 3116 3113 3110 3107 3104 3102 3100 3098 3097 3096 3095 3096 3097 3099 3101 3104 3105 3107 3108 3109 3111 3112 3114 3116 3117 3120 3120 3122 3123 3124 3125 3126 3127 3128 3129 3132 3135 3136 3135 3139 3139 3140 3140 3141 3137
3122 3118 3115 3112 3109 3106 3103 3101 3099 3098 3096 3095 3094 3094 3095 3096 3098 3101 3103 3104 3106 3108 3110 3111 3114 3114 3115 3117 3119 3120 3121 3122 3123 3124 3125 3126 3127 3128 3131 3133 3134 3134 3135 3136 3136 3134 3134
3119 3116 3113 3110 3107 3104 3102 3100 3098 3097 3096 3095 3094 3093 3093 3095 3097 3098 3100 3102 3105 3107 3109 3109 3112 3112 3114 3116 3117 3117 3118 3119 3120 3122 3122 3125 3126 3127 3128 3128 3128 3129 3129 3130 3130 3131 3132